Hourly Weather Roundup
Issued by NWS Central Illinois

Home | Current Version | Previous Version | Text Only | Print | Product List | Glossary On
Versions: 1 2 3 4 5 6 7 8 9 10 11 12 13 14 15 16 17 18 19 20 21 22 23 24 25 26 27 28 29 30 31 32 33 34 35 36 37 38 39 40 41 42 43 44 45 46 47 48 49 50
000
NZUS43 KILX 290510
HWRILX

AREA WEATHER ROUNDUP
NATIONAL WEATHER SERVICE, LINCOLN IL
1100 PM CST FRI NOV 28 2014


CITY           SKY/WX    TMP DP  RH WIND       PRES   REMARKS
BLOOMINGTON    CLEAR     34  31  89 S15       29.89F WCI  24
CHAMPAIGN      PTCLDY    34  29  82 S13       29.92F WCI  25
DECATUR        CLEAR     36  29  75 S13       29.90F WCI  27
FLORA          CLEAR     36  29  77 S8        29.97F WCI  29
GALESBURG      CLEAR     35  32  90 SE8       29.80F WCI  28
JACKSONVILLE   CLOUDY    41  34  76 S10       29.84F WCI  35
LACON          CLEAR     35  30  82 S8        29.85F WCI  29
LAWRENCEVILLE  CLEAR     34  28  79 S8        30.01S WCI  27
LITCHFIELD     MOCLDY    37  32  82 S18       29.88F WCI  27
$$


CITY           SKY/WX    TMP DP  RH WIND       PRES   REMARKS
LINCOLN        CLEAR     38  32  80 S14       29.88F WCI  29
MACOMB         PTCLDY    35  32  90 S12       29.82F WCI  27
MATTOON        PTCLDY    36  27  69 S12       29.93F WCI  28
MT CARMEL AP   CLEAR     36  30  80 S6        30.01R WCI  31
OLNEY-NOBLE AP CLEAR     36  28  75 S9        29.98F WCI  29
PARIS          MOCLDY    34  29  84 SE9       29.97F WCI  26
PEORIA         CLEAR     37  30  75 S10       29.86S WCI  30
PONTIAC        PTCLDY    35  32  88 S10       29.90S WCI  27
RANTOUL        MOCLDY    34  31  87 S10       29.92F WCI  26
ROBINSON       CLEAR     34  28  77 S6        30.01S WCI  29
SPRINGFIELD    MOCLDY    38  32  79 S15       29.87F WCI  29
TAYLORVILLE    MOCLDY    36  32  87 S12       29.89F WCI  27
$$

...REGIONAL REPORTS...


CITY           SKY/WX    TMP DP  RH WIND       PRES   REMARKS
CHICAGO O`HARE CLOUDY    33  28  81 S10       29.88F WCI  25
KANKAKEE       PTCLDY    33  29  85 S10       29.92F WCI  25
MOLINE         CLEAR     31  28  89 E6        29.79F WCI  25
MOUNT VERNON   PTCLDY    39  27  60 S10       29.97F WCI  32
PITTSFIELD     MOCLDY    43  34  70 S12       29.83F
QUINCY         MOCLDY    42  33  70 S10       29.80S
ROCKFORD       MOCLDY    32  28  85 SE9       29.87F WCI  24
$$


CITY           SKY/WX    TMP DP  RH WIND       PRES   REMARKS
BURLINGTON     CLEAR     39  33  79 S12       29.77F WCI  32
CEDAR RAPIDS   CLEAR     27  26  96 E8        29.73F FOG     WCI  19
DES MOINES     PTCLDY    37  30  75 SE6       29.66F WCI  32
KIRKSVILLE     MOCLDY    44  36  73 S9        29.74F
OTTUMWA        PTCLDY    36  30  79 S10       29.69F WCI  28
ST LOUIS       CLOUDY    44  34  67 S9        29.90F
$$


CITY           SKY/WX    TMP DP  RH WIND       PRES   REMARKS
TERRE HAUTE    MOCLDY    35  26  69 S9        29.99S WCI  28
EVANSVILLE     CLEAR     38  26  62 S7        30.03F WCI  33
INDIANAPOLIS   CLOUDY    32  22  66 SE8       30.00F WCI  25
LAFAYETTE      MOCLDY    31  25  78 SE7       29.97F WCI  24
MADISON        CLOUDY    28  26  92 SE5       29.83F WCI  23
MILWAUKEE      CLOUDY    32  27  81 S6        29.88F WCI  26
$$




USA.gov is the U.S. government's official web portal to all federal, state and local government web resources and services.